STARLINK-36598

Last updated on Sun Mar 15 2026 00:02:07 GMT+0000 (Coordinated Universal Time)

1 67844U 26033Z 26073.58335648 -.01941715 00000+0 -23174-1 0 9990 2 67844 42.9988 241.6703 0001441 276.5653 187.1703 15.63433592 5450

Satellite not in orbit